Wind_Speed
40 40 40 41 41 41 42 43 43 44 44 44 44 45 46 46 47 48 48 49 50 51 52 51 51 51 51 51 52 52 52 52 51 49 50 49 49 48 48 48 48 47 45
41 41 42 42 42 43 43 44 44 44 45 45 45 46 46 47 48 48 49 50 51 51 51 51 51 51 51 51 51 51 50 50 50 49 48 47 48 47 47 46 45 43 41
43 43 43 43 43 43 44 44 45 45 45 45 46 46 47 48 48 49 50 51 51 51 51 51 50 50 50 50 50 50 49 49 50 49 47 46 46 46 45 44 42 40 39
43 43 43 44 44 44 45 45 45 45 46 46 46 47 48 49 49 50 51 51 51 52 51 50 49 49 49 49 48 48 48 48 48 47 46 45 45 44 43 41 38 37 36
44 44 44 45 45 45 45 45 45 45 46 46 47 48 49 49 50 50 51 51 51 51 50 49 49 48 48 47 47 46 47 47 46 45 44 43 43 41 40 39 36 35 34
44 44 45 45 46 46 46 46 46 46 47 47 48 49 49 50 50 51 51 51 51 50 49 48 48 47 47 46 46 46 46 46 45 44 43 42 41 40 38 37 36 34 31
45 45 46 46 46 47 47 47 47 47 48 48 49 49 49 50 51 51 52 51 50 49 48 47 47 46 46 45 44 45 45 45 45 45 43 40 39 38 36 35 34 33 31
45 45 45 46 47 47 47 47 48 48 48 48 49 49 50 50 51 51 52 50 48 48 47 46 45 45 44 44 44 44 44 43 43 43 41 38 36 35 34 33 32 31 29
44 45 45 46 47 47 47 48 47 47 48 49 49 50 50 51 51 51 50 48 47 46 46 45 45 44 44 44 44 43 42 41 41 39 37 35 34 34 33 32 31 29 27
45 45 45 46 46 46 46 46 47 47 48 49 50 50 50 50 51 50 48 46 45 44 44 44 44 43 43 43 43 43 41 40 38 36 34 33 33 32 32 31 29 27 25
45 45 45 44 44 44 44 45 46 47 48 49 49 49 49 48 48 46 46 44 44 43 43 43 43 43 43 42 42 40 39 38 35 33 32 31 31 30 30 29 27 25 24
45 45 45 44 44 45 45 46 46 47 48 48 47 46 46 46 45 44 44 44 44 43 42 41 41 41 41 41 40 38 37 35 33 32 31 30 29 29 28 27 26 24 22
45 45 45 45 45 45 45 45 46 46 46 46 45 45 44 44 44 43 43 43 43 42 41 41 40 39 39 39 38 36 35 33 31 30 30 29 28 27 26 25 24 22 20
43 43 44 44 44 44 45 45 45 45 45 44 44 43 43 43 43 42 42 41 40 40 39 38 37 37 38 37 36 34 33 31 30 29 29 28 27 26 25 23 22 20 18
43 43 43 43 43 43 44 44 44 44 43 43 42 42 42 41 41 41 40 38 38 38 37 36 36 36 36 35 34 32 31 30 29 28 28 27 25 24 23 22 20 17 16
43 43 43 43 43 43 43 43 43 42 42 42 41 41 40 39 39 38 37 37 37 36 36 35 35 35 34 33 32 31 30 29 28 27 26 24 23 22 20 19 17 15 14
41 41 41 41 41 41 41 41 41 42 42 41 40 40 39 38 37 37 36 36 35 35 35 34 34 33 32 31 30 29 28 27 26 25 24 23 21 19 18 16 15 13 11
40 40 40 39 39 39 40 40 40 40 40 40 39 39 38 37 37 36 36 35 34 34 33 32 31 31 30 29 28 27 27 26 24 23 21 20 18 17 15 13 11 9 7
39 39 39 39 39 39 39 39 39 38 38 37 37 37 37 37 36 35 34 33 31 31 31 30 30 30 29 28 26 25 23 22 20 18 17 15 13 12 11 9 7 5 3
38 38 39 40 40 40 39 39 38 37 36 36 36 36 35 35 34 33 32 31 30 30 30 29 28 28 26 24 22 21 18 16 15 13 11 9 8 7 6 5 4 3 2
37 38 38 38 38 38 37 37 37 37 36 35 35 34 33 32 31 31 30 30 29 29 28 26 25 24 22 20 18 16 14 12 10 8 6 5 4 3 2 2 3 3 4
34 35 35 35 35 35 34 35 34 34 33 33 32 31 30 29 29 28 27 26 25 25 24 23 22 19 17 15 13 11 10 8 7 5 4 3 2 2 2 3 4 5 6
33 33 32 32 32 32 32 32 31 31 31 30 29 28 27 26 25 24 23 23 22 21 19 18 17 15 13 11 9 8 7 6 6 5 4 3 3 4 4 5 6 7 8
30 30 30 31 31 30 30 29 29 29 28 27 25 24 23 22 21 20 19 18 17 16 14 13 12 11 9 8 7 7 6 6 6 6 5 5 5 6 6 6 7 8 9
27 28 28 28 28 27 27 27 26 25 23 22 21 20 18 17 16 15 14 13 13 11 10 10 9 9 8 8 8 8 7 7 6 6 7 6 7 8 8 8 9 9 10
26 26 25 24 23 23 23 22 21 20 19 17 16 15 15 14 14 13 12 11 10 9 8 7 7 7 8 8 8 8 8 8 7 7 8 8 9 9 9 9 10 10 10
Wind_Direction
255 257 260 263 266 268 271 273 275 277 279 280 283 284 286 287 289 291 292 293 294 295 296 296 296 297 299 300 301 302 303 304 305 305 305 305 305 306 307 307 307 307 306
255 257 260 263 266 268 271 273 276 277 278 280 283 284 286 288 289 291 292 293 295 296 296 296 296 297 298 299 301 302 303 304 305 306 307 306 305 306 307 308 308 307 306
256 259 261 263 266 269 272 274 275 277 278 280 283 284 286 288 289 291 292 294 295 296 296 297 297 297 298 299 300 301 302 303 304 306 307 307 307 307 308 309 309 307 307
257 259 261 264 267 270 272 274 275 277 278 280 283 284 286 288 289 291 293 294 295 295 296 297 297 297 298 299 300 300 302 303 304 306 306 307 308 307 307 309 308 306 306
258 260 262 265 267 270 272 273 275 277 279 280 283 285 287 288 289 291 293 294 295 295 295 296 296 297 298 299 300 301 302 303 305 306 307 308 308 307 307 308 308 307 305
258 260 263 265 268 270 272 273 275 277 279 281 283 285 286 287 289 291 292 294 294 294 294 295 295 296 297 299 300 301 303 304 305 306 307 308 308 308 308 308 308 308 305
258 261 263 265 268 271 272 274 275 277 279 281 283 285 286 287 289 290 292 293 293 293 293 294 294 295 297 298 299 301 302 303 304 305 306 307 308 308 308 308 309 309 306
259 262 264 267 269 270 272 273 275 277 279 281 283 285 286 287 289 290 291 292 292 291 292 293 293 295 296 297 298 300 301 302 303 305 306 307 307 308 309 308 309 310 306
260 262 265 267 269 271 272 274 276 277 279 282 284 285 286 287 288 289 290 291 291 291 291 292 293 294 295 296 298 299 300 301 303 304 305 306 307 308 308 308 308 308 307
261 264 266 268 270 271 272 274 276 278 280 282 284 285 286 287 288 289 290 290 291 291 290 291 293 294 295 296 297 298 298 299 300 300 302 304 306 308 308 309 308 307 307
262 265 268 269 270 271 273 275 277 279 281 283 284 286 286 287 288 288 289 289 290 290 291 292 292 293 293 295 297 297 296 297 297 298 300 302 305 307 309 310 310 309 308
264 266 267 268 270 272 274 276 278 280 282 283 284 285 286 287 287 288 289 289 290 291 292 292 292 292 293 294 295 295 295 296 296 297 299 299 302 304 305 307 309 308 306
265 267 268 269 271 273 275 277 279 280 282 282 283 284 285 286 287 287 288 289 290 291 292 292 292 292 293 294 294 294 295 295 295 297 299 299 300 300 302 304 305 305 306
266 268 269 271 273 274 276 278 279 280 281 282 283 284 285 285 285 286 287 289 290 290 291 292 292 293 295 295 294 293 294 293 293 296 298 299 299 300 301 302 303 303 304
267 268 269 271 273 275 277 278 279 280 281 282 282 283 283 284 285 286 287 288 289 290 291 292 292 293 295 294 293 292 292 293 295 295 296 297 297 299 301 302 301 300 302
268 268 269 271 272 274 276 278 279 280 282 283 283 284 284 284 284 285 286 287 288 289 290 292 292 293 294 293 292 291 291 292 293 293 293 295 296 297 299 300 298 299 302
267 268 269 271 272 274 276 277 279 281 283 283 283 284 284 284 284 284 286 287 288 289 290 292 292 293 292 291 290 290 289 289 291 290 291 291 293 295 295 295 293 295 296
267 268 269 270 272 274 276 278 279 280 281 282 282 283 283 283 284 284 285 286 286 288 289 290 292 292 291 290 290 289 289 289 289 289 289 288 290 292 292 292 290 292 288
268 269 270 271 273 275 276 278 279 280 281 281 281 282 282 282 282 282 283 284 285 286 287 289 290 290 289 289 289 289 289 287 285 284 284 285 288 288 288 285 282 277 249
268 269 271 273 274 275 276 277 278 279 280 281 281 281 281 281 281 282 283 282 283 284 285 286 287 287 287 286 287 287 286 284 283 280 280 282 286 285 279 273 260 224 189
270 271 273 274 275 275 275 276 277 278 279 281 281 281 280 280 280 280 280 280 281 282 282 282 283 284 282 281 281 279 277 275 274 272 270 272 275 271 247 232 203 181 169
271 273 273 274 273 274 275 277 277 278 279 281 280 279 280 280 280 279 279 279 280 282 281 279 279 279 278 276 272 266 261 260 259 253 244 241 231 200 179 165 156 155 152
273 274 274 274 274 275 276 276 277 278 280 282 280 278 278 279 280 279 278 278 279 280 279 276 273 271 268 265 258 251 243 239 230 217 209 200 184 166 156 150 146 145 146
275 275 275 275 274 274 275 276 278 279 280 280 278 276 275 276 277 276 275 276 275 275 274 270 263 254 247 242 235 229 223 217 206 198 193 186 174 164 156 150 145 141 145
277 277 277 276 274 273 273 275 276 277 278 278 276 272 270 271 273 273 272 272 269 267 264 256 245 234 229 223 218 217 213 206 198 191 187 181 172 164 155 146 144 142 144
277 277 277 275 273 272 272 272 273 273 272 272 270 266 265 266 265 264 263 264 260 254 247 238 226 217 213 210 208 206 200 194 186 181 178 172 164 158 152 146 146 145 143
Height
5697 5698 5699 5700 5700 5700 5700 5699 5698 5697 5695 5694 5692 5689 5687 5684 5681 5677 5674 5670 5666 5661 5657 5652 5648 5644 5639 5634 5629 5624 5618 5612 5608 5606 5600 5594 5588 5582 5577 5571 5565 5560 5554
5687 5688 5689 5690 5690 5690 5690 5689 5688 5686 5685 5683 5681 5679 5676 5673 5670 5666 5663 5659 5654 5650 5645 5641 5637 5632 5628 5623 5618 5613 5608 5602 5597 5594 5590 5584 5578 5572 5567 5562 5556 5550 5546
5677 5678 5679 5680 5680 5680 5679 5678 5677 5675 5674 5672 5670 5668 5665 5662 5659 5655 5651 5647 5643 5638 5634 5629 5625 5621 5617 5612 5607 5602 5597 5592 5587 5583 5579 5574 5568 5563 5558 5553 5547 5542 5538
5667 5668 5669 5669 5669 5669 5668 5667 5666 5664 5663 5661 5659 5656 5654 5651 5647 5643 5640 5635 5631 5626 5622 5618 5614 5610 5605 5601 5597 5592 5587 5583 5578 5573 5569 5564 5559 5554 5549 5544 5540 5535 5531
5656 5657 5658 5658 5658 5658 5657 5656 5654 5653 5652 5650 5648 5645 5642 5639 5635 5632 5628 5624 5619 5615 5611 5607 5603 5598 5594 5590 5586 5581 5577 5572 5568 5563 5559 5555 5550 5545 5541 5536 5532 5528 5524
5645 5646 5647 5647 5647 5646 5645 5644 5643 5642 5640 5638 5636 5633 5630 5627 5623 5620 5616 5612 5608 5604 5600 5596 5592 5588 5584 5580 5575 5571 5566 5562 5558 5554 5550 5546 5541 5537 5532 5528 5524 5521 5518
5634 5635 5636 5636 5636 5635 5634 5633 5632 5630 5629 5627 5624 5621 5618 5615 5611 5608 5604 5600 5596 5592 5588 5585 5581 5577 5573 5570 5566 5562 5557 5552 5548 5544 5541 5537 5533 5529 5525 5521 5517 5513 5510
5623 5624 5624 5624 5624 5623 5622 5621 5620 5618 5617 5615 5612 5609 5606 5603 5599 5596 5592 5588 5584 5580 5577 5573 5570 5567 5563 5560 5557 5553 5548 5544 5539 5535 5532 5528 5524 5521 5517 5513 5510 5507 5504
5612 5613 5613 5613 5612 5611 5611 5609 5608 5607 5605 5603 5600 5597 5594 5591 5587 5583 5580 5576 5573 5569 5566 5562 5559 5556 5553 5550 5546 5543 5539 5535 5531 5527 5524 5520 5516 5513 5510 5507 5504 5501 5499
5601 5601 5601 5601 5600 5600 5599 5598 5596 5595 5593 5591 5588 5585 5582 5579 5575 5571 5568 5565 5562 5559 5555 5552 5548 5545 5542 5539 5536 5533 5530 5527 5523 5520 5516 5513 5510 5507 5503 5500 5498 5494 5492
5590 5590 5590 5589 5589 5588 5587 5586 5585 5583 5581 5579 5576 5573 5570 5566 5563 5560 5556 5553 5551 5548 5545 5542 5538 5535 5532 5529 5525 5523 5520 5517 5515 5512 5510 5507 5504 5501 5497 5494 5491 5489 5486
5578 5578 5578 5578 5577 5577 5576 5574 5573 5571 5569 5567 5564 5561 5558 5555 5552 5549 5545 5542 5540 5537 5535 5531 5528 5525 5522 5519 5516 5513 5511 5508 5507 5505 5503 5500 5498 5495 5492 5489 5486 5483 5481
5567 5567 5566 5566 5566 5565 5564 5563 5561 5559 5557 5555 5552 5550 5547 5544 5541 5538 5535 5532 5529 5527 5524 5521 5518 5515 5512 5510 5507 5505 5503 5500 5499 5498 5496 5494 5491 5489 5487 5484 5481 5478 5477
5555 5555 5555 5555 5554 5553 5552 5551 5549 5547 5545 5543 5541 5539 5536 5533 5530 5528 5525 5522 5520 5517 5514 5512 5509 5506 5504 5501 5499 5497 5495 5493 5491 5490 5489 5487 5485 5483 5481 5479 5476 5474 5473
5544 5544 5544 5543 5542 5542 5540 5539 5537 5536 5534 5532 5530 5527 5525 5523 5520 5517 5515 5513 5510 5507 5505 5503 5501 5498 5496 5493 5491 5489 5487 5486 5484 5483 5482 5480 5479 5477 5476 5474 5472 5470 5469
5532 5532 5532 5532 5531 5530 5529 5528 5525 5524 5522 5520 5518 5516 5514 5512 5510 5507 5505 5503 5500 5498 5497 5495 5493 5490 5488 5486 5484 5482 5480 5479 5478 5476 5475 5474 5473 5472 5471 5469 5468 5467 5466
5521 5521 5520 5520 5520 5519 5518 5517 5515 5513 5511 5509 5507 5505 5503 5502 5500 5498 5496 5494 5492 5490 5488 5486 5484 5482 5480 5478 5476 5475 5474 5472 5471 5470 5469 5468 5468 5467 5466 5465 5465 5464 5463
5509 5509 5509 5509 5508 5508 5507 5506 5504 5503 5501 5499 5497 5495 5493 5491 5490 5488 5486 5485 5483 5481 5479 5478 5476 5474 5473 5471 5470 5468 5467 5466 5465 5464 5464 5463 5462 5462 5462 5462 5462 5462 5462
5498 5498 5498 5497 5497 5496 5495 5494 5493 5492 5490 5489 5487 5485 5483 5481 5480 5478 5477 5476 5475 5473 5471 5470 5468 5467 5465 5464 5463 5462 5461 5460 5459 5459 5459 5458 5458 5458 5459 5459 5460 5460 5461
5487 5487 5486 5486 5485 5485 5484 5483 5482 5481 5480 5478 5477 5475 5473 5471 5470 5469 5467 5466 5466 5465 5463 5462 5461 5460 5459 5458 5457 5456 5456 5455 5455 5455 5455 5456 5456 5456 5457 5458 5458 5460 5461
5476 5476 5475 5474 5474 5473 5473 5472 5471 5470 5469 5468 5466 5465 5463 5462 5461 5460 5459 5458 5457 5456 5455 5455 5454 5453 5452 5452 5452 5451 5452 5452 5452 5453 5454 5454 5455 5456 5456 5457 5458 5459 5461
5465 5464 5464 5463 5463 5463 5462 5461 5460 5459 5458 5457 5456 5455 5454 5453 5452 5452 5451 5450 5449 5448 5448 5448 5448 5447 5447 5447 5447 5448 5448 5449 5450 5451 5452 5453 5454 5455 5456 5457 5458 5460 5461
5455 5454 5454 5453 5453 5452 5452 5451 5450 5450 5449 5448 5447 5446 5446 5445 5444 5444 5443 5443 5442 5442 5441 5441 5442 5442 5443 5443 5444 5445 5446 5448 5449 5450 5451 5453 5454 5455 5456 5458 5459 5461 5463
5445 5445 5444 5444 5443 5443 5442 5442 5441 5440 5440 5439 5439 5438 5438 5438 5438 5437 5437 5437 5437 5436 5436 5437 5437 5438 5439 5441 5442 5443 5445 5446 5448 5449 5451 5452 5454 5456 5457 5459 5461 5462 5464
5437 5436 5435 5434 5434 5433 5433 5433 5433 5432 5432 5432 5431 5431 5432 5432 5432 5432 5432 5432 5432 5433 5433 5434 5435 5436 5437 5439 5441 5442 5444 5445 5447 5449 5451 5452 5454 5456 5458 5460 5462 5464 5466
5428 5427 5427 5426 5426 5425 5425 5425 5425 5425 5425 5425 5426 5426 5426 5427 5427 5428 5428 5429 5429 5430 5431 5432 5433 5434 5436 5438 5439 5441 5443 5445 5447 5449 5451 5453 5455 5457 5459 5462 5464 5466 5468